Time,TemperatureF,DewpointF,PressureIn,WindDirection,WindDirectionDegrees,WindSpeedMPH,WindSpeedGustMPH,Humidity,HourlyPrecipIn,Conditions,Clouds,dailyrainin,SoftwareType,DateUTC
2013-04-16 00:03:00,72.0,67.0,30.06,NE,44,0.0,1.0,83,0.00,,,0.00,,2013-04-16 04:03:00,
2013-04-16 00:13:00,72.0,67.0,30.06,NE,44,0.0,1.0,83,0.00,,,0.00,,2013-04-16 04:13:00,
2013-04-16 00:23:00,71.0,66.0,30.07,NE,44,0.0,1.0,84,0.00,,,0.00,,2013-04-16 04:23:00,
2013-04-16 00:33:00,71.0,66.0,30.06,NE,44,0.0,1.0,85,0.00,,,0.00,,2013-04-16 04:33:00,
2013-04-16 00:42:00,71.0,66.0,30.06,NE,44,0.0,1.0,85,0.00,,,0.00,,2013-04-16 04:42:00,
2013-04-16 00:52:00,71.0,67.0,30.06,NE,44,0.0,1.0,86,0.00,,,0.00,,2013-04-16 04:52:00,
2013-04-16 01:03:00,70.0,66.0,30.06,NE,44,0.0,1.0,87,0.00,,,0.00,,2013-04-16 05:03:00,
2013-04-16 01:12:00,70.0,66.0,30.06,NE,44,0.0,1.0,87,0.00,,,0.00,,2013-04-16 05:12:00,
2013-04-16 01:22:00,70.0,67.0,30.05,NE,44,0.0,0.0,89,0.00,,,0.00,,2013-04-16 05:22:00,
2013-04-16 01:32:00,69.0,66.0,30.05,NE,44,0.0,1.0,89,0.00,,,0.00,,2013-04-16 05:32:00,
2013-04-16 01:42:00,69.0,66.0,30.05,NE,44,0.0,1.0,89,0.00,,,0.00,,2013-04-16 05:42:00,
2013-04-16 01:52:00,69.0,66.0,30.04,NE,44,0.0,0.0,89,0.00,,,0.00,,2013-04-16 05:52:00,
2013-04-16 02:02:00,69.0,66.0,30.04,NE,44,0.0,0.0,90,0.00,,,0.00,,2013-04-16 06:02:00,
2013-04-16 02:12:00,69.0,66.0,30.04,NE,44,0.0,0.0,90,0.00,,,0.00,,2013-04-16 06:12:00,
2013-04-16 02:22:00,69.0,66.0,30.04,NE,44,0.0,1.0,91,0.00,,,0.00,,2013-04-16 06:22:00,
2013-04-16 02:32:00,69.0,66.0,30.04,NE,44,0.0,0.0,91,0.00,,,0.00,,2013-04-16 06:32:00,
2013-04-16 02:42:00,69.0,66.0,30.04,NE,44,0.0,0.0,91,0.00,,,0.00,,2013-04-16 06:42:00,
2013-04-16 02:52:00,68.0,65.0,30.03,NE,44,0.0,0.0,91,0.00,,,0.00,,2013-04-16 06:52:00,
2013-04-16 03:02:00,68.0,66.0,30.03,NE,44,0.0,0.0,92,0.00,,,0.00,,2013-04-16 07:02:00,
2013-04-16 03:12:00,68.0,66.0,30.03,NE,44,0.0,0.0,92,0.00,,,0.00,,2013-04-16 07:12:00,
2013-04-16 03:22:00,68.0,66.0,30.03,NE,44,0.0,0.0,93,0.00,,,0.00,,2013-04-16 07:22:00,
2013-04-16 03:32:00,68.0,66.0,30.03,NE,44,0.0,0.0,93,0.00,,,0.00,,2013-04-16 07:32:00,
2013-04-16 03:42:00,68.0,66.0,30.03,NE,44,0.0,0.0,93,0.00,,,0.00,,2013-04-16 07:42:00,
2013-04-16 03:53:00,68.0,66.0,30.02,NE,44,0.0,0.0,93,0.00,,,0.00,,2013-04-16 07:53:00,
2013-04-16 04:02:00,67.0,65.0,30.02,NE,44,0.0,0.0,93,0.00,,,0.00,,2013-04-16 08:02:00,
2013-04-16 04:12:00,67.0,65.0,30.02,NE,44,0.0,0.0,93,0.00,,,0.00,,2013-04-16 08:12:00,
2013-04-16 04:22:00,67.0,65.0,30.02,NE,44,0.0,0.0,92,0.00,,,0.00,,2013-04-16 08:22:00,
2013-04-16 04:32:00,67.0,65.0,30.02,NE,44,0.0,1.0,92,0.00,,,0.00,,2013-04-16 08:32:00,
2013-04-16 04:42:00,67.0,65.0,30.02,NE,44,0.0,1.0,92,0.00,,,0.00,,2013-04-16 08:42:00,
2013-04-16 04:52:00,67.0,65.0,30.02,NE,44,0.0,0.0,93,0.00,,,0.00,,2013-04-16 08:52:00,
2013-04-16 05:02:00,67.0,65.0,30.02,East,88,0.0,2.0,94,0.00,,,0.00,,2013-04-16 09:02:00,
2013-04-16 05:12:00,67.0,65.0,30.02,East,88,0.0,2.0,94,0.00,,,0.00,,2013-04-16 09:12:00,
2013-04-16 05:22:00,68.0,67.0,30.03,ESE,102,0.0,3.0,95,0.00,,,0.00,,2013-04-16 09:22:00,
2013-04-16 05:33:00,68.0,66.0,30.03,East,88,0.0,2.0,94,0.00,,,0.00,,2013-04-16 09:33:00,
2013-04-16 05:43:00,68.0,66.0,30.03,East,88,0.0,2.0,94,0.00,,,0.00,,2013-04-16 09:43:00,
2013-04-16 05:53:00,68.0,67.0,30.03,East,88,0.0,0.0,95,0.00,,,0.00,,2013-04-16 09:53:00,
2013-04-16 06:03:00,68.0,67.0,30.04,East,83,0.0,2.0,95,0.00,,,0.00,,2013-04-16 10:03:00,
2013-04-16 06:13:00,68.0,67.0,30.04,East,83,0.0,2.0,95,0.00,,,0.00,,2013-04-16 10:13:00,
2013-04-16 06:23:00,68.0,67.0,30.04,East,94,0.0,2.0,95,0.00,,,0.00,,2013-04-16 10:23:00,
2013-04-16 06:33:00,68.0,67.0,30.05,East,94,0.0,2.0,95,0.00,,,0.00,,2013-04-16 10:33:00,
2013-04-16 06:42:00,68.0,67.0,30.05,East,94,0.0,2.0,95,0.00,,,0.00,,2013-04-16 10:42:00,
2013-04-16 06:53:00,68.0,67.0,30.05,East,89,0.0,2.0,95,0.00,,,0.00,,2013-04-16 10:53:00,
2013-04-16 07:03:00,68.0,67.0,30.06,East,96,1.0,5.0,96,0.00,,,0.00,,2013-04-16 11:03:00,
2013-04-16 07:12:00,68.0,67.0,30.06,East,96,1.0,5.0,96,0.00,,,0.00,,2013-04-16 11:12:00,
2013-04-16 07:22:00,68.0,67.0,30.07,NE,43,0.0,5.0,95,0.00,,,0.00,,2013-04-16 11:22:00,
2013-04-16 07:32:00,68.0,66.0,30.07,East,82,0.0,6.0,94,0.00,,,0.00,,2013-04-16 11:32:00,
2013-04-16 07:42:00,68.0,66.0,30.07,East,82,0.0,6.0,94,0.00,,,0.00,,2013-04-16 11:42:00,
2013-04-16 07:53:00,68.0,66.0,30.08,East,89,1.0,5.0,93,0.00,,,0.00,,2013-04-16 11:53:00,
2013-04-16 08:02:00,69.0,67.0,30.09,East,85,0.0,5.0,92,0.00,,,0.00,,2013-04-16 12:02:00,
2013-04-16 08:12:00,69.0,67.0,30.09,East,85,0.0,5.0,92,0.00,,,0.00,,2013-04-16 12:12:00,
2013-04-16 08:22:00,69.0,66.0,30.09,ESE,109,2.0,7.0,91,0.00,,,0.00,,2013-04-16 12:22:00,
2013-04-16 08:32:00,71.0,68.0,30.09,SE,124,2.0,6.0,89,0.00,,,0.00,,2013-04-16 12:32:00,
2013-04-16 08:42:00,71.0,68.0,30.09,SE,124,2.0,6.0,89,0.00,,,0.00,,2013-04-16 12:42:00,
2013-04-16 08:52:00,72.0,68.0,30.10,East,96,2.0,8.0,87,0.00,,,0.00,,2013-04-16 12:52:00,
2013-04-16 09:02:00,74.0,69.0,30.10,East,88,4.0,8.0,84,0.00,,,0.00,,2013-04-16 13:02:00,
2013-04-16 09:12:00,74.0,69.0,30.10,East,88,4.0,8.0,84,0.00,,,0.00,,2013-04-16 13:12:00,
2013-04-16 09:22:00,75.0,69.0,30.10,ENE,77,3.0,10.0,82,0.00,,,0.00,,2013-04-16 13:22:00,
2013-04-16 09:32:00,75.0,69.0,30.10,East,96,4.0,11.0,81,0.00,,,0.00,,2013-04-16 13:32:00,
2013-04-16 09:42:00,75.0,69.0,30.10,East,96,4.0,11.0,81,0.00,,,0.00,,2013-04-16 13:42:00,
2013-04-16 09:52:00,77.0,70.0,30.10,East,93,3.0,9.0,78,0.00,,,0.00,,2013-04-16 13:52:00,
2013-04-16 10:02:00,78.0,70.0,30.11,ENE,71,4.0,10.0,76,0.00,,,0.00,,2013-04-16 14:02:00,
2013-04-16 10:12:00,78.0,70.0,30.11,ENE,71,4.0,10.0,76,0.00,,,0.00,,2013-04-16 14:12:00,
2013-04-16 10:22:00,79.0,70.0,30.11,NE,39,5.0,11.0,73,0.00,,,0.00,,2013-04-16 14:22:00,
2013-04-16 10:32:00,80.0,70.0,30.11,ENE,71,5.0,10.0,72,0.00,,,0.00,,2013-04-16 14:32:00,
2013-04-16 10:42:00,80.0,70.0,30.11,ENE,71,5.0,10.0,72,0.00,,,0.00,,2013-04-16 14:42:00,
2013-04-16 10:52:00,81.0,70.0,30.11,NNE,31,5.0,10.0,70,0.00,,,0.00,,2013-04-16 14:52:00,
2013-04-16 11:02:00,82.0,71.0,30.11,ESE,113,3.0,8.0,69,0.00,,,0.00,,2013-04-16 15:02:00,
2013-04-16 11:12:00,82.0,71.0,30.11,ESE,113,3.0,8.0,69,0.00,,,0.00,,2013-04-16 15:12:00,
2013-04-16 11:22:00,83.0,71.0,30.11,ESE,117,3.0,9.0,67,0.00,,,0.00,,2013-04-16 15:22:00,
2013-04-16 11:33:00,83.0,71.0,30.11,ESE,111,5.0,9.0,67,0.00,,,0.00,,2013-04-16 15:33:00,
2013-04-16 11:43:00,83.0,71.0,30.11,ESE,111,5.0,9.0,67,0.00,,,0.00,,2013-04-16 15:43:00,
2013-04-16 11:53:00,85.0,71.0,30.11,East,94,2.0,9.0,64,0.00,,,0.00,,2013-04-16 15:53:00,
2013-04-16 12:03:00,85.0,71.0,30.12,East,86,4.0,10.0,64,0.00,,,0.00,,2013-04-16 16:03:00,
2013-04-16 12:13:00,85.0,71.0,30.12,East,86,4.0,10.0,64,0.00,,,0.00,,2013-04-16 16:13:00,
2013-04-16 12:23:00,86.0,72.0,30.11,ESE,117,2.0,11.0,63,0.00,,,0.00,,2013-04-16 16:23:00,
2013-04-16 12:32:00,86.0,72.0,30.11,ESE,110,4.0,10.0,63,0.00,,,0.00,,2013-04-16 16:32:00,
2013-04-16 12:42:00,86.0,72.0,30.11,ESE,110,4.0,10.0,63,0.00,,,0.00,,2013-04-16 16:42:00,
2013-04-16 12:53:00,87.0,71.0,30.11,SE,133,4.0,8.0,59,0.00,,,0.00,,2013-04-16 16:53:00,
2013-04-16 13:02:00,87.0,71.0,30.10,East,98,5.0,10.0,59,0.00,,,0.00,,2013-04-16 17:02:00,
2013-04-16 13:12:00,87.0,71.0,30.10,East,98,5.0,10.0,59,0.00,,,0.00,,2013-04-16 17:12:00,
2013-04-16 13:22:00,88.0,72.0,30.09,SSE,153,2.0,11.0,59,0.00,,,0.00,,2013-04-16 17:22:00,
2013-04-16 13:32:00,88.0,71.0,30.09,SE,128,3.0,11.0,57,0.00,,,0.00,,2013-04-16 17:32:00,
2013-04-16 13:43:00,88.0,71.0,30.09,SE,128,3.0,11.0,57,0.00,,,0.00,,2013-04-16 17:43:00,
2013-04-16 13:53:00,89.0,71.0,30.09,East,90,3.0,10.0,56,0.00,,,0.00,,2013-04-16 17:53:00,
2013-04-16 14:02:00,89.0,71.0,30.09,SE,142,3.0,10.0,55,0.00,,,0.00,,2013-04-16 18:02:00,
2013-04-16 14:12:00,89.0,71.0,30.09,SE,142,3.0,10.0,55,0.00,,,0.00,,2013-04-16 18:12:00,
2013-04-16 14:22:00,90.0,72.0,30.08,East,80,5.0,11.0,55,0.00,,,0.00,,2013-04-16 18:22:00,
2013-04-16 14:32:00,90.0,72.0,30.08,East,83,3.0,9.0,55,0.00,,,0.00,,2013-04-16 18:32:00,
2013-04-16 14:42:00,90.0,72.0,30.08,East,83,3.0,9.0,55,0.00,,,0.00,,2013-04-16 18:42:00,
2013-04-16 14:52:00,91.0,71.0,30.08,SSE,149,6.0,10.0,53,0.00,,,0.00,,2013-04-16 18:52:00,
2013-04-16 15:02:00,90.0,71.0,30.07,SE,129,5.0,10.0,53,0.00,,,0.00,,2013-04-16 19:02:00,
2013-04-16 15:12:00,90.0,71.0,30.07,SE,129,5.0,10.0,53,0.00,,,0.00,,2013-04-16 19:12:00,
2013-04-16 15:22:00,89.0,68.0,30.07,East,95,5.0,10.0,51,0.00,,,0.00,,2013-04-16 19:22:00,
2013-04-16 15:32:00,90.0,68.0,30.06,ENE,61,5.0,10.0,49,0.00,,,0.00,,2013-04-16 19:32:00,
2013-04-16 15:42:00,90.0,68.0,30.06,ENE,61,5.0,10.0,49,0.00,,,0.00,,2013-04-16 19:42:00,
2013-04-16 15:52:00,90.0,68.0,30.06,ESE,123,2.0,11.0,49,0.00,,,0.00,,2013-04-16 19:52:00,
2013-04-16 16:02:00,89.0,67.0,30.05,SE,135,4.0,8.0,48,0.00,,,0.00,,2013-04-16 20:02:00,
2013-04-16 16:13:00,89.0,67.0,30.05,SE,135,4.0,8.0,48,0.00,,,0.00,,2013-04-16 20:13:00,
2013-04-16 16:22:00,89.0,67.0,30.05,East,93,4.0,10.0,48,0.00,,,0.00,,2013-04-16 20:22:00,
2013-04-16 16:32:00,88.0,67.0,30.05,ESE,120,2.0,5.0,50,0.00,,,0.00,,2013-04-16 20:32:00,
2013-04-16 16:42:00,88.0,67.0,30.05,ESE,120,2.0,5.0,50,0.00,,,0.00,,2013-04-16 20:42:00,
2013-04-16 16:52:00,88.0,72.0,30.05,WNW,286,3.0,9.0,59,0.00,,,0.00,,2013-04-16 20:52:00,
2013-04-16 17:02:00,88.0,72.0,30.05,West,281,3.0,8.0,59,0.00,,,0.00,,2013-04-16 21:02:00,
2013-04-16 17:12:00,88.0,72.0,30.05,West,281,3.0,8.0,59,0.00,,,0.00,,2013-04-16 21:12:00,
2013-04-16 17:22:00,90.0,72.0,30.04,SW,232,2.0,6.0,56,0.00,,,0.00,,2013-04-16 21:22:00,
2013-04-16 17:32:00,90.0,71.0,30.05,WNW,290,2.0,10.0,53,0.00,,,0.00,,2013-04-16 21:32:00,
2013-04-16 17:43:00,90.0,71.0,30.05,WNW,290,2.0,10.0,53,0.00,,,0.00,,2013-04-16 21:43:00,
2013-04-16 17:53:00,87.0,71.0,30.04,WNW,298,2.0,7.0,59,0.00,,,0.00,,2013-04-16 21:53:00,
2013-04-16 18:03:00,86.0,71.0,30.04,SW,216,3.0,5.0,61,0.00,,,0.00,,2013-04-16 22:03:00,
2013-04-16 18:13:00,86.0,71.0,30.04,SW,216,3.0,5.0,61,0.00,,,0.00,,2013-04-16 22:13:00,
2013-04-16 18:22:00,87.0,73.0,30.04,West,274,3.0,8.0,63,0.00,,,0.00,,2013-04-16 22:22:00,
2013-04-16 18:33:00,88.0,72.0,30.05,West,278,2.0,6.0,59,0.00,,,0.00,,2013-04-16 22:33:00,
2013-04-16 18:43:00,88.0,72.0,30.05,West,278,2.0,6.0,59,0.00,,,0.00,,2013-04-16 22:43:00,
2013-04-16 18:52:00,88.0,72.0,30.04,NNW,333,2.0,8.0,60,0.00,,,0.00,,2013-04-16 22:52:00,
2013-04-16 19:02:00,87.0,73.0,30.05,WNW,295,3.0,5.0,64,0.00,,,0.00,,2013-04-16 23:02:00,
2013-04-16 19:12:00,87.0,73.0,30.05,WNW,295,3.0,5.0,64,0.00,,,0.00,,2013-04-16 23:12:00,
2013-04-16 19:22:00,87.0,74.0,30.05,WNW,286,0.0,3.0,66,0.00,,,0.00,,2013-04-16 23:22:00,
2013-04-16 19:32:00,86.0,73.0,30.05,WNW,284,1.0,4.0,65,0.00,,,0.00,,2013-04-16 23:32:00,
2013-04-16 19:43:00,86.0,73.0,30.05,WNW,284,1.0,4.0,65,0.00,,,0.00,,2013-04-16 23:43:00,
2013-04-16 19:52:00,84.0,73.0,30.05,WNW,296,1.0,3.0,70,0.00,,,0.00,,2013-04-16 23:52:00,
2013-04-16 20:02:00,83.0,73.0,30.06,NW,304,1.0,3.0,71,0.00,,,0.00,,2013-04-17 00:02:00,
2013-04-16 20:12:00,83.0,73.0,30.06,NW,304,1.0,3.0,71,0.00,,,0.00,,2013-04-17 00:12:00,
2013-04-16 20:22:00,83.0,70.0,30.06,East,82,0.0,3.0,65,0.00,,,0.00,,2013-04-17 00:22:00,
2013-04-16 20:32:00,83.0,68.0,30.06,East,100,1.0,4.0,61,0.00,,,0.00,,2013-04-17 00:32:00,
2013-04-16 20:42:00,83.0,68.0,30.06,East,100,1.0,4.0,61,0.00,,,0.00,,2013-04-17 00:42:00,
2013-04-16 20:52:00,83.0,69.0,30.07,ESE,115,3.0,8.0,62,0.00,,,0.00,,2013-04-17 00:52:00,
2013-04-16 21:02:00,83.0,68.0,30.08,East,90,5.0,14.0,61,0.00,,,0.00,,2013-04-17 01:02:00,
2013-04-16 21:12:00,83.0,68.0,30.08,East,90,5.0,14.0,61,0.00,,,0.00,,2013-04-17 01:12:00,
2013-04-16 21:22:00,82.0,68.0,30.09,ESE,109,4.0,11.0,63,0.00,,,0.00,,2013-04-17 01:22:00,
2013-04-16 21:32:00,81.0,68.0,30.09,ESE,104,7.0,13.0,64,0.00,,,0.00,,2013-04-17 01:32:00,
2013-04-16 21:42:00,81.0,68.0,30.09,ESE,104,7.0,13.0,64,0.00,,,0.00,,2013-04-17 01:42:00,
2013-04-16 21:52:00,81.0,68.0,30.10,East,94,6.0,15.0,65,0.00,,,0.00,,2013-04-17 01:52:00,
2013-04-16 22:02:00,80.0,68.0,30.11,East,90,4.0,14.0,66,0.00,,,0.00,,2013-04-17 02:02:00,
2013-04-16 22:12:00,80.0,68.0,30.11,East,90,4.0,14.0,66,0.00,,,0.00,,2013-04-17 02:12:00,
2013-04-16 22:22:00,80.0,68.0,30.11,East,92,5.0,17.0,67,0.00,,,0.00,,2013-04-17 02:22:00,
2013-04-16 22:32:00,79.0,67.0,30.12,SE,128,6.0,15.0,67,0.00,,,0.00,,2013-04-17 02:32:00,
2013-04-16 22:42:00,79.0,67.0,30.12,SE,128,6.0,15.0,67,0.00,,,0.00,,2013-04-17 02:42:00,
2013-04-16 22:52:00,79.0,67.0,30.12,East,96,4.0,15.0,67,0.00,,,0.00,,2013-04-17 02:52:00,
2013-04-16 23:02:00,78.0,67.0,30.12,ENE,59,5.0,13.0,69,0.00,,,0.00,,2013-04-17 03:02:00,
2013-04-16 23:12:00,78.0,67.0,30.12,ENE,59,5.0,13.0,69,0.00,,,0.00,,2013-04-17 03:12:00,
2013-04-16 23:22:00,78.0,67.0,30.12,SE,128,7.0,15.0,70,0.00,,,0.00,,2013-04-17 03:22:00,
2013-04-16 23:33:00,77.0,67.0,30.12,ENE,73,4.0,11.0,71,0.00,,,0.00,,2013-04-17 03:33:00,
2013-04-16 23:42:00,77.0,67.0,30.12,ENE,73,4.0,11.0,71,0.00,,,0.00,,2013-04-17 03:42:00,
2013-04-16 23:53:00,77.0,67.0,30.12,ENE,78,3.0,8.0,72,0.00,,,0.00,,2013-04-17 03:53:00,